Location: Minneapolis
(44.9800°N, 93.2640°W)
Time: 08:16:04
(UTC-06:00)

ISS - Visible Passes

Search period start: 15 December 2017 00:00
Search period end: 25 December 2017 00:00
Orbit: 402 x 407 km, 51.6° (Epoch: 15 December)

Date Brightness Start Highest point End Pass type
(mag) Time Alt. Az. Time Alt. Az. Time Alt. Az.
15 Dec -3.9 17:05:02 10° WNW 17:08:21 81° NNE 17:11:38 10° ESE visible
15 Dec -0.8 18:42:24 10° W 18:44:26 15° SW 18:46:28 10° S visible
16 Dec -1.6 17:49:31 10° W 17:52:22 27° SW 17:55:11 10° SSE visible
18 Dec -0.4 17:42:27 10° WSW 17:43:57 13° SW 17:45:27 10° SSW visible
